TimeMDT,TemperatureF,Dew PointF,Humidity,Sea Level PressureIn,VisibilityMPH,Wind Direction,Wind SpeedMPH,Gust SpeedMPH,PrecipitationIn,Events,Conditions,WindDirDegrees,DateUTC
12:15 AM,34.5,21.7,60,30.27,10.0,ENE,6.9,-,N/A,,Clear,70,2013-10-19 06:15:00
12:35 AM,35.2,21.4,57,30.27,10.0,ENE,4.6,-,N/A,,Clear,70,2013-10-19 06:35:00
12:55 AM,34.3,21.9,60,30.27,10.0,East,6.9,-,N/A,,Clear,80,2013-10-19 06:55:00
1:15 AM,33.4,21.9,63,30.27,10.0,ENE,5.8,-,N/A,,Clear,60,2013-10-19 07:15:00
1:35 AM,34.5,22.1,61,30.27,10.0,Calm,Calm,-,N/A,,Clear,0,2013-10-19 07:35:00
1:55 AM,33.6,22.3,63,30.27,10.0,Calm,Calm,-,N/A,,Clear,0,2013-10-19 07:55:00
2:15 AM,32.4,22.8,68,30.27,10.0,NNW,3.5,-,N/A,,Clear,340,2013-10-19 08:15:00
2:35 AM,33.1,22.5,65,30.27,10.0,NE,6.9,-,N/A,,Clear,40,2013-10-19 08:35:00
2:55 AM,34.0,22.1,62,30.27,10.0,NE,6.9,-,N/A,,Clear,50,2013-10-19 08:55:00
3:15 AM,34.0,22.3,62,30.27,10.0,NE,6.9,-,N/A,,Clear,50,2013-10-19 09:15:00
3:35 AM,33.1,22.1,64,30.27,10.0,East,4.6,-,N/A,,Clear,90,2013-10-19 09:35:00
3:55 AM,31.1,22.1,69,30.26,10.0,ENE,4.6,-,N/A,,Clear,70,2013-10-19 09:55:00
4:15 AM,32.0,21.9,66,30.27,10.0,ENE,6.9,-,N/A,,Clear,70,2013-10-19 10:15:00
4:35 AM,32.0,21.7,66,30.26,10.0,East,4.6,-,N/A,,Clear,80,2013-10-19 10:35:00
4:55 AM,30.4,21.7,70,30.26,10.0,NE,3.5,-,N/A,,Clear,40,2013-10-19 10:55:00
5:15 AM,30.9,21.7,69,30.27,10.0,NE,3.5,-,N/A,,Clear,40,2013-10-19 11:15:00
5:35 AM,30.2,21.6,70,30.28,10.0,ENE,4.6,-,N/A,,Clear,60,2013-10-19 11:35:00
5:55 AM,30.4,21.6,70,30.28,10.0,ENE,4.6,-,N/A,,Clear,60,2013-10-19 11:55:00
6:15 AM,29.5,21.2,71,30.28,10.0,NNE,4.6,-,N/A,,Clear,20,2013-10-19 12:15:00
6:35 AM,31.1,21.2,67,30.28,10.0,Calm,Calm,-,N/A,,Clear,0,2013-10-19 12:35:00
6:55 AM,29.7,21.4,71,30.28,10.0,Calm,Calm,-,N/A,,Clear,0,2013-10-19 12:55:00
7:15 AM,29.3,21.2,72,30.28,10.0,Calm,Calm,-,N/A,,Clear,0,2013-10-19 13:15:00
7:35 AM,30.9,21.0,67,30.28,10.0,Calm,Calm,-,N/A,,Clear,0,2013-10-19 13:35:00
7:55 AM,29.3,21.6,73,30.29,10.0,Calm,Calm,-,N/A,,Clear,0,2013-10-19 13:55:00
8:15 AM,31.3,22.3,69,30.30,10.0,Calm,Calm,-,N/A,,Clear,0,2013-10-19 14:15:00
8:35 AM,32.7,22.8,67,30.30,10.0,Calm,Calm,-,N/A,,Clear,0,2013-10-19 14:35:00
8:55 AM,35.6,22.3,58,30.30,10.0,Calm,Calm,-,N/A,,Clear,0,2013-10-19 14:55:00
9:15 AM,36.9,22.5,56,30.30,10.0,Calm,Calm,-,N/A,,Clear,0,2013-10-19 15:15:00
9:35 AM,38.3,22.5,53,30.30,10.0,East,3.5,-,N/A,,Clear,100,2013-10-19 15:35:00
9:55 AM,39.2,23.4,53,30.30,10.0,Calm,Calm,-,N/A,,Clear,0,2013-10-19 15:55:00
10:15 AM,40.8,23.9,51,30.30,10.0,Calm,Calm,-,N/A,,Clear,0,2013-10-19 16:15:00
10:35 AM,43.3,23.2,45,30.30,7.0,East,3.5,-,N/A,,Clear,90,2013-10-19 16:35:00
10:55 AM,44.4,23.2,43,30.28,10.0,ENE,3.5,-,N/A,,Clear,70,2013-10-19 16:55:00
12:55 PM,54.1,19.8,26,30.23,7.0,East,3.5,-,N/A,,Clear,90,2013-10-19 18:55:00
1:15 PM,55.6,17.2,22,30.22,10.0,ESE,4.6,-,N/A,,Clear,110,2013-10-19 19:15:00
1:35 PM,56.5,17.6,22,30.20,10.0,Calm,Calm,-,N/A,,Clear,0,2013-10-19 19:35:00
1:55 PM,57.2,18.5,22,30.19,7.0,Calm,Calm,-,N/A,,Clear,0,2013-10-19 19:55:00
2:15 PM,57.9,18.5,22,30.19,10.0,Calm,Calm,-,N/A,,Clear,0,2013-10-19 20:15:00
2:35 PM,58.6,18.7,21,30.17,10.0,Calm,Calm,-,N/A,,Clear,0,2013-10-19 20:35:00
2:55 PM,59.7,18.7,20,30.17,10.0,Calm,Calm,-,N/A,,Clear,0,2013-10-19 20:55:00
3:15 PM,60.1,19.0,20,30.16,10.0,Calm,Calm,-,N/A,,Clear,0,2013-10-19 21:15:00
3:35 PM,60.8,19.6,20,30.16,10.0,Calm,Calm,-,N/A,,Clear,0,2013-10-19 21:35:00
3:55 PM,60.3,19.0,20,30.15,10.0,Calm,Calm,-,N/A,,Clear,0,2013-10-19 21:55:00
4:15 PM,61.5,20.3,20,30.15,10.0,SSW,6.9,-,N/A,,Clear,200,2013-10-19 22:15:00
4:35 PM,61.3,21.0,21,30.14,7.0,SSW,4.6,-,N/A,,Clear,210,2013-10-19 22:35:00
4:55 PM,61.7,22.6,22,30.13,10.0,SW,8.1,-,N/A,,Clear,230,2013-10-19 22:55:00
5:15 PM,61.0,24.1,24,30.13,10.0,SW,10.4,-,N/A,,Clear,220,2013-10-19 23:15:00
5:35 PM,60.1,24.6,26,30.12,10.0,SSW,8.1,-,N/A,,Clear,210,2013-10-19 23:35:00
5:55 PM,59.0,25.5,28,30.12,10.0,SSW,8.1,-,N/A,,Clear,200,2013-10-19 23:55:00
6:15 PM,57.0,25.7,30,30.12,10.0,SW,6.9,-,N/A,,Clear,220,2013-10-20 00:15:00
6:35 PM,54.9,25.7,32,30.12,10.0,SW,5.8,-,N/A,,Clear,230,2013-10-20 00:35:00
6:55 PM,54.0,25.5,33,30.13,10.0,West,4.6,-,N/A,,Clear,260,2013-10-20 00:55:00
7:15 PM,52.9,26.1,35,30.13,10.0,Calm,Calm,-,N/A,,Clear,0,2013-10-20 01:15:00
7:35 PM,50.7,26.4,39,30.13,10.0,NE,4.6,-,N/A,,Clear,40,2013-10-20 01:35:00
7:55 PM,48.2,26.8,43,30.14,10.0,Calm,Calm,-,N/A,,Clear,0,2013-10-20 01:55:00
8:15 PM,47.8,26.8,44,30.14,10.0,Calm,Calm,-,N/A,,Clear,0,2013-10-20 02:15:00
8:35 PM,46.4,27.5,48,30.14,10.0,Calm,Calm,-,N/A,,Clear,0,2013-10-20 02:35:00
8:55 PM,45.3,27.7,50,30.14,10.0,Calm,Calm,-,N/A,,Clear,0,2013-10-20 02:55:00
9:15 PM,43.5,28.4,55,30.14,10.0,NNE,5.8,-,N/A,,Clear,20,2013-10-20 03:15:00
9:35 PM,45.1,27.5,50,30.15,10.0,NNE,3.5,-,N/A,,Clear,30,2013-10-20 03:35:00
9:55 PM,43.2,27.7,54,30.15,10.0,NNE,5.8,-,N/A,,Clear,30,2013-10-20 03:55:00
10:15 PM,40.6,27.9,60,30.16,10.0,NE,5.8,-,N/A,,Clear,50,2013-10-20 04:15:00
10:35 PM,41.2,27.3,58,30.16,10.0,ENE,6.9,-,N/A,,Clear,60,2013-10-20 04:35:00
10:55 PM,41.2,27.5,58,30.16,10.0,ENE,6.9,-,N/A,,Clear,60,2013-10-20 04:55:00
11:15 PM,41.2,27.9,59,30.16,10.0,ESE,4.6,-,N/A,,Clear,110,2013-10-20 05:15:00
11:35 PM,39.7,27.9,63,30.16,10.0,East,4.6,-,N/A,,Clear,90,2013-10-20 05:35:00
11:55 PM,38.3,27.7,66,30.15,10.0,East,3.5,-,N/A,,Clear,90,2013-10-20 05:55:00